Dewpoint
53 52 52 50 49 50 52 50 50 51 51 49 49 50 50 52 52 52 53 53 54 53 51 52 51 51 51 51 51 48 49 51 52 51 51 52 52 53 51 49 51 50
55 53 52 51 49 48 51 51 52 51 51 50 49 49 52 52 54 52 53 53 53 53 52 51 52 51 51 50 51 50 49 51 50 49 51 51 51 51 51 51 50 50
55 55 54 52 50 50 52 54 53 52 52 50 51 51 51 52 54 53 53 54 53 53 53 52 51 50 50 50 50 51 51 50 51 51 51 51 51 51 52 52 50 49
56 56 55 54 52 51 51 53 52 52 52 51 50 51 51 53 55 53 54 54 53 53 54 52 52 50 49 49 50 48 50 50 50 51 51 50 51 50 50 50 48 50
57 56 55 54 53 53 54 54 53 52 51 51 53 51 50 54 55 52 54 53 52 53 53 52 51 50 50 50 48 49 48 48 50 49 49 50 50 50 49 50 49 50
56 55 54 54 54 54 53 54 53 53 52 52 53 51 51 54 53 51 52 53 51 52 52 52 51 50 49 49 49 50 48 48 48 48 48 48 48 48 46 48 47 48
56 56 56 54 54 54 54 53 54 54 53 53 51 53 51 53 53 50 50 52 51 51 51 52 51 50 50 50 49 49 49 48 49 46 46 46 48 48 45 46 46 44
55 56 52 54 54 54 55 53 54 54 56 53 53 53 52 51 51 51 51 51 50 50 51 51 51 49 49 49 48 48 50 50 50 47 46 45 48 46 47 45 47 43
55 56 57 56 54 53 53 53 51 54 54 55 54 54 54 53 50 50 50 50 51 51 50 51 50 49 50 49 48 48 47 49 49 47 47 47 47 45 44 45 46 46
57 57 57 56 55 55 55 53 51 52 50 54 55 56 54 55 53 50 50 51 51 50 50 50 50 50 50 49 47 47 47 48 47 47 47 46 46 44 41 44 44 45
56 56 56 56 56 57 57 57 56 52 52 50 52 54 54 54 54 52 51 51 52 50 50 50 50 49 49 49 49 49 48 48 47 46 47 46 46 45 47 44 44 44
59 57 57 57 57 57 60 60 60 59 57 56 52 53 54 53 53 52 51 50 50 50 50 50 49 49 48 48 47 48 49 48 48 47 46 45 45 45 43 43 44 44
58 58 60 59 59 58 58 58 58 57 56 55 55 55 55 54 53 52 53 52 51 51 51 51 50 49 49 49 48 48 48 47 48 47 47 47 45 44 43 44 44 42
45 47 51 55 59 59 60 59 58 58 58 58 57 56 56 55 55 55 53 52 52 53 54 54 54 49 49 49 48 48 48 48 48 48 47 46 46 45 44 44 43 41
42 43 45 46 46 48 53 55 59 59 59 59 58 58 59 59 55 54 53 52 52 53 53 52 52 51 50 49 49 47 48 48 48 46 47 46 46 45 43 42 41 40
34 37 37 40 42 44 45 48 50 52 56 57 57 57 57 57 55 55 53 54 53 53 53 54 53 52 50 45 46 48 48 47 48 47 46 45 46 44 43 41 40 40
35 36 38 37 37 38 41 43 44 48 51 51 52 52 54 54 54 54 55 55 55 57 57 55 55 54 45 42 42 44 48 49 48 47 46 45 43 42 41 40 40 38
35 34 34 35 37 37 38 37 40 42 45 50 51 51 52 52 53 53 52 52 53 52 55 55 54 48 41 41 41 41 43 47 47 46 45 42 41 40 39 39 38 39
34 36 36 37 36 37 39 42 41 41 42 45 48 51 52 51 51 52 52 52 52 53 53 52 53 41 40 39 38 39 40 44 44 44 42 41 40 39 38 38 38 38
34 33 35 37 39 40 40 40 41 41 43 44 45 47 48 50 51 52 52 52 52 52 53 53 53 41 38 38 37 36 37 39 42 42 41 39 38 38 39 39 39 38
36 37 37 37 37 38 40 40 41 43 44 44 45 46 46 46 48 50 51 51 50 51 52 53 50 38 37 36 36 35 35 37 41 41 39 39 39 39 39 39 38 38
38 38 39 39 39 39 40 41 42 44 45 45 44 44 46 47 47 48 50 50 51 52 52 51 42 36 35 35 35 34 34 40 40 40 38 38 38 38 38 38 37 37
37 38 40 40 40 40 39 41 42 43 45 45 45 45 44 45 46 47 47 48 49 50 50 43 39 36 34 34 33 32 34 37 39 38 37 38 38 38 37 36 36 35
36 35 37 38 40 41 41 43 43 44 44 46 45 45 44 44 44 44 46 47 48 50 46 42 38 35 33 32 32 32 34 38 37 37 36 35 36 36 35 33 34 43
36 37 38 39 40 40 42 43 43 44 44 46 46 46 46 45 43 43 45 48 49 46 41 39 36 34 33 32 32 33 36 37 34 32 32 32 32 30 32 32 31 40
37 38 40 41 41 43 43 44 44 44 46 46 46 44 43 43 44 45 45 46 44 41 39 37 33 33 34 33 34 33 33 36 33 31 28 28 29 28 29 30 29 29